Claremore, OK

6:55 PM CDT on September 20, 2019 (GMT -0500)
Claremore Regional

Weather History for KGCM - August, 2019

Change the Weather History Date:

Thursday, August 22, 2019

  Actual Average (WUND) Record (WUND)
Temperature  
Mean Temperature 74 °F -  
Max Temperature 78 °F - - (-1)
Min Temperature 68 °F - - (-1)
Cooling Degree Days 8    
Growing Degree Days 24 (Base 50)    
Moisture  
Dew Point 69 °F    
Average Humidity 84    
Maximum Humidity 100    
Minimum Humidity 74    
Precipitation  
Precipitation 0.49 in - - ()
Sea Level Pressure  
Sea Level Pressure 29.97 in    
Wind  
Wind Speed 5 mph ()    
Max Wind Speed 20 mph    
Max Gust Speed 37 mph    
Visibility 9.6 miles    
Events Rain    
Averages and records for this station are not official NWS values.
T = Trace of Precipitation, MM = Missing Value Source: Averaged Metar Reports

Daily Weather History Graph

Daily Weather History Graph

Search for Another Location

Airport or City:

Astronomy

Aug. 22, 2019 Rise Set
Actual Time 6:45 AM CDT 8:03 PM CDT
Civil Twilight 6:18 AM CDT 8:30 PM CDT
Nautical Twilight 5:46 AM CDT 9:02 PM CDT
Astronomical Twilight 5:12 AM CDT 9:35 PM CDT
Moon No Moon Rise 1:10 PM CDT (8/22)
Length of Visible Light 14h 12m
Length of Day
13h 18m
Waning Gibbous, 59% of the Moon is Illuminated
Aug 22
Waning Gibbous
Aug 23
Last Quarter
Aug 30
New
Sep 5
First Quarter
Sep 13
Full

Hourly Weather History & Observations

Time (CDT) Temp. Dew Point Humidity Pressure Visibility Wind Dir Wind Speed Gust Speed Precip Events Conditions
12:15 AM 77.0 °F 68.0 °F 74% 29.96 in 10.0 mi SE 5.8 mph - N/A   Scattered Clouds
12:35 AM 75.2 °F 69.8 °F 83% 29.96 in 10.0 mi SE 3.5 mph - N/A   Scattered Clouds
12:55 AM 73.4 °F 69.8 °F 88% 29.95 in 10.0 mi SSE 4.6 mph - N/A   Scattered Clouds
1:15 AM 75.2 °F 69.8 °F 83% 29.94 in 10.0 mi SSE 5.8 mph - N/A   Clear
1:35 AM 73.4 °F 69.8 °F 88% 29.93 in 10.0 mi SE 4.6 mph - N/A   Clear
1:55 AM 73.4 °F 69.8 °F 88% 29.93 in 10.0 mi SSE 3.5 mph - N/A   Clear
2:15 AM 73.4 °F 69.8 °F 88% 29.93 in 10.0 mi Calm Calm - N/A   Clear
2:35 AM 77.0 °F 69.8 °F 78% 29.98 in 10.0 mi WNW 12.7 mph 32.2 mph N/A   Mostly Cloudy
2:55 AM 75.2 °F 68.0 °F 78% 29.98 in 10.0 mi NNW 8.1 mph 17.3 mph N/A   Overcast
3:15 AM 73.4 °F 68.0 °F 83% 29.98 in 10.0 mi NNE 10.4 mph - N/A   Scattered Clouds
3:35 AM 73.4 °F 68.0 °F 83% 29.98 in 10.0 mi NE 9.2 mph - N/A   Clear
3:55 AM 71.6 °F 68.0 °F 88% 29.96 in 10.0 mi NE 8.1 mph - N/A   Scattered Clouds
4:35 AM 71.6 °F 68.0 °F 88% 29.97 in 10.0 mi ENE 10.4 mph - N/A   Scattered Clouds
4:55 AM 71.6 °F 68.0 °F 88% 29.97 in 10.0 mi NE 6.9 mph - N/A   Mostly Cloudy
5:15 AM 71.6 °F 68.0 °F 88% 29.99 in 10.0 mi North 5.8 mph - N/A   Overcast
5:35 AM 71.6 °F 68.0 °F 88% 29.99 in 10.0 mi NNE 4.6 mph - N/A   Overcast
5:55 AM 71.6 °F 68.0 °F 88% 30.00 in 10.0 mi Calm Calm - N/A   Overcast
6:15 AM 71.6 °F 68.0 °F 88% 30.01 in 10.0 mi Calm Calm - N/A   Overcast
6:35 AM 71.6 °F 68.0 °F 88% 30.04 in 10.0 mi SSW 3.5 mph - N/A   Overcast
6:55 AM 69.8 °F 68.0 °F 94% 30.01 in 1.2 mi ENE 5.8 mph - 0.21 in Rain Rain
7:15 AM 69.8 °F 68.0 °F 94% 30.02 in 10.0 mi Calm Calm - N/A Rain Light Rain
7:35 AM 69.8 °F 68.0 °F 94% 30.05 in 10.0 mi West 4.6 mph - N/A   Overcast
7:55 AM 69.8 °F 68.0 °F 94% 30.03 in 10.0 mi Calm Calm - N/A Rain Light Rain
8:15 AM 69.8 °F 69.8 °F 100% 30.03 in 10.0 mi Calm Calm - N/A   Mostly Cloudy
8:35 AM 69.8 °F 68.0 °F 94% 30.02 in 10.0 mi ESE 3.5 mph - N/A   Scattered Clouds
8:55 AM 69.8 °F 69.8 °F 100% 30.01 in 10.0 mi SE 8.1 mph - N/A   Clear
9:15 AM 71.6 °F 69.8 °F 94% 30.00 in 10.0 mi ESE 6.9 mph - N/A   Mostly Cloudy
9:35 AM 71.6 °F 69.8 °F 94% 30.00 in 10.0 mi ESE 5.8 mph - N/A   Mostly Cloudy
9:55 AM 71.6 °F 69.8 °F 94% 29.99 in 10.0 mi ESE 6.9 mph - N/A   Scattered Clouds
10:35 AM 73.4 °F 69.8 °F 88% 29.99 in 10.0 mi SE 8.1 mph - N/A   Clear
10:55 AM 73.4 °F 69.8 °F 88% 29.98 in 10.0 mi SE 6.9 mph - N/A   Clear
11:15 AM 73.4 °F 69.8 °F 88% 29.99 in 10.0 mi SSE 4.6 mph - N/A   Clear
11:35 AM 75.2 °F 69.8 °F 83% 29.99 in 10.0 mi SE 5.8 mph - N/A   Clear
11:55 AM 77.0 °F 69.8 °F 78% 30.00 in 10.0 mi East 3.5 mph - N/A   Scattered Clouds
12:15 PM 77.0 °F 69.8 °F 78% 30.00 in 10.0 mi Calm Calm - N/A   Scattered Clouds
12:35 PM 77.0 °F 69.8 °F 78% 30.00 in 10.0 mi Calm Calm - N/A   Scattered Clouds
12:55 PM 77.0 °F 69.8 °F 78% 29.99 in 10.0 mi North 4.6 mph - N/A   Mostly Cloudy
1:15 PM 77.0 °F 69.8 °F 78% 29.99 in 10.0 mi North 3.5 mph - N/A   Scattered Clouds
1:35 PM 77.0 °F 69.8 °F 78% 29.99 in 10.0 mi North 4.6 mph - N/A   Mostly Cloudy
1:55 PM 77.0 °F 69.8 °F 78% 29.97 in 10.0 mi ENE 4.6 mph - N/A   Scattered Clouds
2:15 PM 78.8 °F 69.8 °F 74% 29.97 in 10.0 mi ENE 4.6 mph - N/A   Clear
2:35 PM 78.8 °F 69.8 °F 74% 29.97 in 10.0 mi East 3.5 mph - N/A   Clear
2:55 PM 78.8 °F 69.8 °F 74% 29.96 in 10.0 mi NNE 3.5 mph - N/A   Clear
3:15 PM 78.8 °F 69.8 °F 74% 29.96 in 10.0 mi ENE 5.8 mph - N/A   Clear
3:35 PM 78.8 °F 69.8 °F 74% 29.96 in 10.0 mi NNE 8.1 mph - N/A   Scattered Clouds
3:55 PM 78.8 °F 71.6 °F 78% 29.97 in 10.0 mi North 6.9 mph - N/A   Overcast
4:15 PM 78.8 °F 71.6 °F 78% 29.95 in 10.0 mi NNE 5.8 mph - N/A   Scattered Clouds
4:35 PM 78.8 °F 69.8 °F 74% 29.94 in 10.0 mi NE 6.9 mph - N/A   Clear
4:55 PM 78.8 °F 69.8 °F 74% 29.93 in 10.0 mi NE 8.1 mph - N/A   Scattered Clouds
5:15 PM 78.8 °F 69.8 °F 74% 29.93 in 10.0 mi ENE 8.1 mph - N/A   Clear
5:35 PM 78.8 °F 69.8 °F 74% 29.92 in 10.0 mi NE 6.9 mph - N/A   Scattered Clouds
5:55 PM 78.8 °F 69.8 °F 74% 29.92 in 10.0 mi ENE 6.9 mph - N/A   Clear
6:35 PM 77.0 °F 69.8 °F 78% 29.90 in 10.0 mi East 6.9 mph - N/A   Scattered Clouds
6:55 PM 77.0 °F 69.8 °F 78% 29.91 in 10.0 mi ENE 5.8 mph - N/A   Clear
7:15 PM 77.0 °F 69.8 °F 78% 29.91 in 10.0 mi East 6.9 mph - N/A   Scattered Clouds
7:35 PM 77.0 °F 69.8 °F 78% 29.91 in 10.0 mi ENE 4.6 mph - N/A   Scattered Clouds
7:55 PM 75.2 °F 69.8 °F 83% 29.90 in 10.0 mi ENE 6.9 mph - N/A   Clear
8:15 PM 75.2 °F 69.8 °F 83% 29.91 in 10.0 mi ENE 4.6 mph - N/A   Clear
8:35 PM 75.2 °F 69.8 °F 83% 29.92 in 10.0 mi NE 4.6 mph - N/A   Clear
8:55 PM 73.4 °F 69.8 °F 88% 29.94 in 10.0 mi ENE 4.6 mph - N/A   Scattered Clouds
9:15 PM 73.4 °F 69.8 °F 88% 29.94 in 10.0 mi East 4.6 mph - N/A   Scattered Clouds
9:35 PM 75.2 °F 69.8 °F 83% 29.93 in 10.0 mi ENE 5.8 mph - N/A   Mostly Cloudy
9:55 PM 75.2 °F 69.8 °F 83% 29.94 in 10.0 mi ENE 6.9 mph - N/A   Mostly Cloudy
10:15 PM 73.4 °F 69.8 °F 88% 29.94 in 10.0 mi ENE 5.8 mph - N/A   Mostly Cloudy
10:35 PM 73.4 °F 68.0 °F 83% 30.00 in 4.0 mi West 19.6 mph 36.8 mph 0.01 in Rain Light Rain
10:55 PM 69.8 °F 68.0 °F 94% 30.01 in 4.0 mi West 6.9 mph 12.7 mph 0.16 in Rain Heavy Rain
11:15 PM 69.8 °F 68.0 °F 94% 29.99 in 5.0 mi NE 8.1 mph - 0.07 in Rain Rain
11:35 PM 69.8 °F 68.0 °F 94% 29.98 in 10.0 mi NE 6.9 mph - 0.09 in Rain Rain
11:55 PM 68.0 °F 66.2 °F 94% 29.98 in 5.0 mi Calm Calm - 0.12 in Rain Rain